EW6089 Weather Reports


time (UTC)temp
C
wind
direction
speed
KPH
gust
KPH
rain 1hr
cm
rain 24hr
cm
rain mn
cm
humidity
%
barometer
mb
20260901224017 18 0.0 1.6 0.00 0.00 0.00 78 1010.1
20260901223016 18 0.0 1.6 0.00 0.00 0.00 78 1010.1
20260901222016 18 0.0 3.2 0.00 0.00 0.00 77 1010.2
20260901221021 18 0.0 3.2 0.00 0.00 0.00 76 1010.1
20260901220017 18 0.0 3.2 0.00 0.00 0.00 76 1010.1
20260901215017 18 0.0 4.8 0.00 0.00 0.00 77 1010.0
20260901214022 18 0.0 1.6 0.00 0.00 0.00 76 1010.0
20260901213016 18 0.0 1.6 0.00 0.00 0.00 76 1010.1
20260901212040 18 0.0 1.6 0.00 0.00 0.00 75 1010.2
20260901211018 18 0.0 1.6 0.00 0.00 0.00 75 1010.2
20260901210018 18 0.0 3.2 0.00 0.00 0.00 75 1010.2
20260901205018 18 0.0 0.0 0.00 0.00 0.00 75 1010.4
20260901204037 18 0.0 1.6 0.00 0.00 0.00 76 1010.4
20260901203017 18 0.0 4.8 0.00 0.00 0.00 77 1010.5
20260901202015 18 0.0 1.6 0.00 0.00 0.00 77 1010.6
20260901201016 18 0.0 6.4 0.00 0.00 0.00 76 1010.5
20260901200015 18 0.0 6.4 0.00 0.00 0.00 75 1010.5
20260901195038 18 0.0 1.6 0.00 0.00 0.00 76 1010.6
20260901194016 18 0.0 4.8 0.00 0.00 0.00 75 1010.7
20260901193016 18 0.0 3.2 0.00 0.00 0.00 75 1010.7
20260901192016 18 45 1.6 6.4 0.00 0.00 0.00 75 1010.6
20260901191015 18 68 1.6 6.4 0.00 0.00 0.00 75 1010.5
20260901190015 18 158 1.6 9.7 0.00 0.00 0.00 75 1010.6
20260901185018 18 90 1.6 9.7 0.00 0.00 0.00 76 1010.7
20260901184017 18 135 1.6 8.0 0.00 0.00 0.00 77 1010.8
20260901183017 17 45 1.6 11.3 0.00 0.00 0.00 78 1010.6
20260901182017 17 45 1.6 6.4 0.00 0.00 0.00 78 1010.5
20260901181059 17 0.0 4.8 0.00 0.00 0.00 79 1010.5
20260901180018 17 45 1.6 9.7 0.00 0.00 0.00 79 1010.4
20260901175020 17 135 1.6 3.2 0.00 0.00 0.00 79 1010.3
20260901174018 17 0.0 3.2 0.00 0.00 0.00 79 1010.2
20260901173018 17 0.0 3.2 0.00 0.00 0.00 79 1010.0
20260901172037 17 68 1.6 9.7 0.00 0.00 0.00 81 1010.1
20260901171039 16 68 1.6 6.4 0.00 0.00 0.00 83 1010.3
20260901170017 16 135 1.6 4.8 0.00 0.00 0.00 84 1010.3
20260901165043 16 0.0 3.2 0.00 0.00 0.00 85 1010.3
20260901164017 16 0.0 3.2 0.00 0.00 0.00 85 1010.4
20260901163017 15 0.0 1.6 0.00 0.00 0.00 86 1010.5
20260901162017 15 0.0 3.2 0.00 0.00 0.00 87 1010.5
20260901161017 15 0.0 1.6 0.00 0.00 0.00 87 1010.5
20260901160018 15 0.0 4.8 0.00 0.00 0.00 88 1010.4
20260901155017 15 0.0 4.8 0.00 0.00 0.00 89 1010.6
20260901154037 15 113 1.6 8.0 0.00 0.00 0.00 90 1010.6
20260901153040 14 0.0 3.2 0.00 0.00 0.00 93 1010.6
20260901152020 13 0.0 4.8 0.00 0.00 0.00 96 1010.5
20260901151026 12 0.0 0.0 0.00 0.00 0.00 96 1010.5
20260901150017 12 0.0 0.0 0.00 0.00 0.00 96 1010.4
20260901145038 12 0.0 0.0 0.00 0.00 0.00 96 1010.4
20260901144017 12 0.0 0.0 0.00 0.00 0.00 96 1010.3
20260901143017 12 0.0 0.0 0.00 0.00 0.00 96 1010.2
20260901142017 12 0.0 0.0 0.00 0.00 0.00 96 1010.2
20260901141017 12 0.0 0.0 0.00 0.00 0.00 96 1010.1
20260901140018 12 0.0 0.0 0.00 0.00 0.00 95 1010.0
20260901135017 12 0.0 0.0 0.00 0.00 0.00 95 1010.0
20260901134017 11 0.0 0.0 0.00 0.00 0.00 95 1009.9
20260901133017 11 0.0 0.0 0.00 0.00 0.00 95 1009.9
20260901132017 11 0.0 0.0 0.00 0.00 0.00 95 1009.9
20260901131017 12 0.0 0.0 0.00 0.00 0.00 95 1009.9
20260901130017 12 0.0 0.0 0.00 0.00 0.00 95 1009.9
20260901125017 12 0.0 0.0 0.00 0.00 0.00 95 1009.8
20260901124017 12 0.0 0.0 0.00 0.00 0.00 95 1009.8
20260901123017 12 0.0 0.0 0.00 0.00 0.00 95 1009.6
20260901122017 12 0.0 0.0 0.00 0.00 0.00 95 1009.7
20260901121017 12 0.0 0.0 0.00 0.00 0.00 95 1009.6
20260901120037 12 0.0 0.0 0.00 0.00 0.00 95 1009.5
20260901115017 12 0.0 0.0 0.00 0.00 0.00 94 1009.5
20260901114037 12 0.0 0.0 0.00 0.00 0.00 94 1009.4
20260901113018 12 0.0 0.0 0.00 0.00 0.00 94 1009.4
20260901112016 12 0.0 0.0 0.00 0.00 0.00 94 1009.5
20260901111016 12 0.0 0.0 0.00 0.00 0.00 94 1009.4
20260901110017 12 0.0 0.0 0.00 0.00 0.00 94 1009.5
20260901105037 12 0.0 0.0 0.00 0.00 0.00 93 1009.5
20260901104016 12 0.0 0.0 0.00 0.00 0.00 93 1009.4
20260901103017 12 0.0 0.0 0.00 0.00 0.00 93 1009.3
20260901102016 12 0.0 0.0 0.00 0.00 0.00 93 1009.3
20260901101017 12 0.0 0.0 0.00 0.00 0.00 93 1009.2
20260901100017 12 0.0 0.0 0.00 0.00 0.00 93 1009.2
20260901095042 12 0.0 0.0 0.00 0.00 0.00 92 1009.1
20260901094016 12 0.0 0.0 0.00 0.00 0.00 92 1009.2
20260901093017 12 0.0 0.0 0.00 0.00 0.00 92 1009.2
20260901092016 12 0.0 0.0 0.00 0.00 0.00 92 1009.2
20260901091017 12 0.0 0.0 0.00 0.00 0.00 91 1009.2
20260901090036 13 0.0 0.0 0.00 0.00 0.00 91 1009.1
20260901085016 13 0.0 0.0 0.00 0.00 0.00 91 1009.1
20260901084017 13 0.0 0.0 0.00 0.00 0.00 91 1009.1
20260901083018 13 0.0 0.0 0.00 0.00 0.00 91 1009.1
20260901082017 13 0.0 0.0 0.00 0.00 0.00 90 1009.1
20260901081040 13 0.0 0.0 0.00 0.00 0.00 90 1009.0
20260901080016 13 0.0 0.0 0.00 0.00 0.00 89 1008.9
20260901075016 13 0.0 0.0 0.00 0.00 0.00 89 1009.0
20260901074017 13 0.0 0.0 0.00 0.00 0.00 89 1008.9
20260901073016 13 0.0 0.0 0.00 0.00 0.00 88 1008.9
20260901072016 14 0.0 0.0 0.00 0.00 0.00 88 1008.9
20260901071016 14 0.0 0.0 0.00 0.00 0.00 88 1009.1
20260901070016 14 0.0 0.0 0.00 0.00 0.00 88 1008.8
20260901065016 14 0.0 0.0 0.00 0.00 0.00 87 1008.8
20260901064017 15 0.0 0.0 0.00 0.00 0.00 86 1008.9
20260901063016 15 0.0 0.0 0.00 0.00 0.00 86 1009.0
20260901062018 15 0.0 0.0 0.00 0.00 0.00 85 1009.0
20260901061016 15 0.0 0.0 0.00 0.00 0.00 85 1009.0
20260901060022 15 0.0 0.0 0.00 0.00 0.00 85 1009.0
20260901055016 15 0.0 0.0 0.00 0.00 0.00 84 1009.1
20260901054017 16 0.0 0.0 0.00 0.00 0.00 84 1009.1
20260901053016 16 0.0 0.0 0.00 0.00 0.00 83 1009.1
20260901052018 16 0.0 0.0 0.00 0.00 0.00 83 1009.1
20260901051016 16 0.0 0.0 0.00 0.00 0.00 82 1009.2
20260901050017 16 0.0 0.0 0.00 0.00 0.00 81 1009.1
20260901045018 16 0.0 0.0 0.00 0.00 0.00 81 1009.2
20260901044016 17 0.0 0.0 0.00 0.00 0.00 82 1009.0
20260901043018 17 0.0 0.0 0.00 0.00 0.00 81 1009.0
20260901042038 17 0.0 0.0 0.00 0.00 0.00 81 1009.1
20260901041024 17 0.0 0.0 0.00 0.00 0.00 80 1009.1
20260901040036 17 0.0 0.0 0.00 0.00 0.00 79 1009.0
20260901035038 18 0.0 0.0 0.00 0.00 0.00 78 1008.9
20260901034016 18 0.0 0.0 0.00 0.00 0.00 77 1008.8
20260901033016 18 0.0 0.0 0.00 0.00 0.00 77 1008.6
20260901032016 19 0.0 0.0 0.00 0.00 0.00 75 1008.7
20260901031016 19 0.0 0.0 0.00 0.00 0.00 74 1008.6
20260901030016 19 0.0 0.0 0.00 0.00 0.00 72 1008.5
20260901025042 20 0.0 0.0 0.00 0.00 0.00 72 1008.5
20260901024016 20 0.0 0.0 0.00 0.00 0.00 72 1008.5
20260901023016 20 0.0 1.6 0.00 0.00 0.00 70 1008.3
20260901022016 21 0.0 1.6 0.00 0.00 0.00 67 1008.4
20260901021016 21 0.0 0.0 0.00 0.00 0.00 66 1008.3
20260901020016 21 0.0 1.6 0.00 0.00 0.00 65 1008.4
20260901015017 22 0.0 0.0 0.00 0.00 0.00 64 1008.3
20260901014039 22 0.0 1.6 0.00 0.00 0.00 63 1008.3
20260901013017 22 0.0 1.6 0.00 0.00 0.00 62 1008.3
20260901012016 22 0.0 1.6 0.00 0.00 0.00 62 1008.3
20260901011016 22 0.0 1.6 0.00 0.00 0.00 61 1008.3
20260901010020 23 0.0 3.2 0.00 0.00 0.00 59 1008.3
20260901005018 23 0.0 0.0 0.00 0.00 0.00 58 1008.4
20260901004016 23 0.0 1.6 0.00 0.00 0.00 56 1008.4
20260901003018 23 0.0 3.2 0.00 0.00 0.00 55 1008.5
20260901002037 23 0.0 1.6 0.00 0.00 0.00 55 1008.6
20260901001017 23 158 1.6 4.8 0.00 0.00 0.00 56 1008.7
20260901000017 23 158 1.6 3.2 0.00 0.00 0.00 56 1008.8
20260831235017 23 158 1.6 4.8 0.00 0.00 0.00 57 1008.9
20260831234015 23 158 1.6 6.4 0.00 0.00 0.00 58 1008.9
20260831233016 23 158 1.6 6.4 0.00 0.00 0.00 57 1009.0
20260831232017 23 158 1.6 4.8 0.00 0.00 0.00 56 1009.2
20260831231017 23 158 1.6 4.8 0.00 0.00 0.00 56 1009.2
20260831230017 23 158 1.6 4.8 0.00 0.00 0.00 56 1009.3
20260831225017 23 158 1.6 6.4 0.00 0.00 0.00 56 1009.4